Regional Weather Roundup
Issued by NWS

Home | Current Version | Previous Version | Text Only | Print | Product List | Glossary Off
Versions: 1 2 3 4 5 6 7 8 9 10 11 12 13 14 15 16 17 18 19 20 21 22 23 24 25 26 27 28 29 30 31 32 33 34 35 36 37 38 39 40 41 42 43 44 45 46 47 48 49 50

000
ASUS43 KMKX 221421
RWRWI

WISCONSIN REGIONAL WEATHER ROUNDUP
NATIONAL WEATHER SERVICE MILWAUKEE/SULLIVAN WI
900 AM CDT THU JUN 22 2017

NOTE: "FAIR" INDICATES FEW OR NO CLOUDS BELOW 12,000 FEET WITH NO
SIGNIFICANT WEATHER AND/OR OBSTRUCTIONS TO VISIBILITY.

WIZ001-002-006>008-014>016-023>028-221500-
NORTHWEST WISCONSIN

CITY           SKY/WX    TMP DP  RH WIND       PRES   REMARKS
SUPERIOR ARPT  NOT AVBL
ASHLAND        CLOUDY    66  60  81 SW6       29.70S
HAYWARD        CLOUDY    67  60  78 VRB3      29.74R
SIREN          RAIN      65  63  91 CALM      29.70F
CUMBERLAND     PTSUNNY   64  63  94 NW7       29.74F
RICE LAKE      DRIZZLE   65  63  93 W5        29.74R
CHETEK           N/A     65  64  97 NE5       29.71F
LADYSMITH      CLOUDY    66  63  90 NW5       29.76R
EAU CLAIRE     LGT RAIN  67  65  93 SE5       29.70F
MENOMONIE      CLOUDY    69  66  91 CALM      29.69F
NEW RICHMOND   CLOUDY    67  66  94 N6        29.71R
OSCEOLA        CLOUDY    67  67 100 NE3       29.73F
$$

WIZ003>005-009-010-017-018-221500-
NORTH CENTRAL WISCONSIN

CITY           SKY/WX    TMP DP  RH WIND       PRES   REMARKS
MANITOWISH WTR CLOUDY    64  64  98 W6        29.72F
ARBOR VITAE    CLOUDY    66  62  89 W3        29.72F
WOODRUFF       CLOUDY    66  62  89 W3        29.72F
RHINELANDER    CLOUDY    69  65  86 W8        29.73F
EAGLE RIVER    CLOUDY    65  60  85 W6        29.72F
LAND O LAKES   CLOUDY    67  61  83 W6        29.73F
PHILLIPS       CLOUDY    66  64  93 SW5       29.74R
TOMAHAWK       NOT AVBL
MEDFORD        CLOUDY    69  65  87 W9        29.74R
MERRILL        CLOUDY    71  67  86 W7        29.74R
$$

WIZ029-030-035-036-043>047-221500-
CENTRAL WISCONSIN

CITY           SKY/WX    TMP DP  RH WIND       PRES   REMARKS
WAUSAU         CLOUDY    69  66  90 W5        29.72S
MOSINEE        CLOUDY    70  66  88 SW7       29.74F
MARSHFIELD     CLOUDY    68  65  90 SW6       29.73S
STEVENS POINT  CLOUDY    68  68  99 SW5       29.74S
WAUPACA        PTSUNNY   75  70  86 SW8       29.73F
WAUTOMA        CLOUDY    72  69  90 S8        29.74F
WISC RAPIDS    CLOUDY    72  68  87 SW9       29.74F
CAMP DOUGLAS   CLOUDY    72  68  88 S6        29.73F
$$

WIZ011>013-019>022-031-037>040-048>050-221500-
NORTHEAST WISCONSIN

CITY           SKY/WX    TMP DP  RH WIND       PRES   REMARKS
ANTIGO         CLOUDY    70  66  87 W10       29.74F
SHAWANO        PTSUNNY   72  66  81 SW6       29.72S
OCONTO         CLOUDY    71  65  83 W9        29.71F
STURGEON BAY     N/A     72  67  84 W15         N/A
GREEN BAY      CLOUDY    72  70  93 SW9       29.73S
MANITOWOC      LGT RAIN  66  64  93 SE5       29.74F
APPLETON       PTSUNNY   72  68  88 SW8       29.73S
CLINTONVILLE   PTSUNNY   70  64  83 SW8       29.73S
OSHKOSH        CLOUDY    71  68  90 S5        29.74F
$$

WIZ032>034-041-042-053>061-221500-
SOUTHWEST WISCONSIN

CITY           SKY/WX    TMP DP  RH WIND       PRES   REMARKS
LA CROSSE      CLOUDY    75  66  73 S10       29.72R
SPARTA         CLOUDY    71  67  88 CALM      29.74R
VIROQUA        CLOUDY    71  64  79 SW12      29.75S
BOSCOBEL       LGT RAIN  72  64  76 SW8       29.76R
PRAIRIE DU CHI HVY RAIN  67  63  85 SW13      29.76R
PLATTEVILLE    MOSUNNY   71  66  84 S13       29.77F
$$

WIZ056-057-062-063-064-067-068-221500-
SOUTH CENTRAL WISCONSIN

CITY           SKY/WX    TMP DP  RH WIND       PRES   REMARKS
REEDSBURG      PTSUNNY   69  69 100 CALM      29.74F
BARABOO/DELLS  PTSUNNY   70  67  92 S5        29.76R
LONE ROCK      CLOUDY    69  67  93 VRB3      29.75R
MINERAL POINT  LGT RAIN  68  68 100 S16G22    29.76F
MADISON        CLOUDY    70  68  93 N3        29.77R
MIDDLETON      CLOUDY    71  68  90 CALM      29.78F
WATERTOWN      LGT RAIN  69  69 100 S7        29.77F
MONROE         CLOUDY    73  63  68 SW15      29.80S
JANESVILLE     PTSUNNY   75  64  69 SW16      29.78F
$$

WIZ051-052-058>065-066-070>072-221500-
SOUTHEAST WISCONSIN

CITY           SKY/WX    TMP DP  RH WIND       PRES   REMARKS
MILWAUKEE      CLOUDY    78  67  68 SW6       29.79F HX  80
WAUKESHA       PTSUNNY   72  64  78 SE6       29.79F
MILWAUKEE/TIMM MOSUNNY   72  64  78 CALM      29.80F
RACINE         CLOUDY    77  65  66 SW10      29.81F
KENOSHA        CLOUDY    76  66  71 SW16G22   29.81F
FOND DU LAC    CLOUDY    72  66  81 S9        29.75F
SHEBOYGAN      CLOUDY    70  69  97 S5        29.75S
WEST BEND      PTSUNNY   70  68  94 S6        29.78F
JUNEAU         DRIZZLE   68  67  94 SE6       29.77S
$$

LSZ147-162-221500-
LAKE SUPERIOR

STATION/POSITION TIME  TEMP    WIND        PRES    WAVE
                       AIR SEA DIR/SP/G            HT/PER
                 (UTC) (F)     (DEG/KT/KT) (MB)    (FT/S)
W MID LAKE BUOY  1350   43 39  230/  8/  8 1004.7F   0
DEVILS ISLAND    1400   54     240/ 13/ 15 1004.9F
SAXON HARBOR     1340   69     270/  5/ 11 1005.8R
$$

LMZ867-665-643>646-221500-
LAKE MICHIGAN

STATION/POSITION TIME  TEMP    WIND        PRES    WAVE
                       AIR SEA DIR/SP/G            HT/PER
                 (UTC) (F)     (DEG/KT/KT) (MB)    (FT/S)
CHAMBERS ISLAND  1330   67     190/  5/ 10 1006.1S
N MID LAKE BUOY  1350   58 54  180/ 12/ 14 1006.9F   2/ 5
NORTHPORT PIER   1340   63     150/  5/  7 1006.1F
KEWAUNEE LAKESHO 1354   55     180/ 13/ 16 1006.6S
SHEBOYGAN LAKESH 1400   63     160/  3/  4 1007.3R
PORT WASHINGTON  1340   72     250/  5/  8 1009.1F
ATWATER BUOY     1209   69 54  210/  4/  6 1010.2R
MILWAUKEE LAKESH 1400   65     160/  7/ 10   N/A
S MID LAKE BUOY  1350   65 61  170/ 14/ 16 1010.0F   2/ 4
KENOSHA   LAKESH 1400   77     230/ 13/ 19 1009.1
$$

TC  - TEMPERATURE IN CELSIUS
VSB - VISIBILITY IN STATUTE MILES
WCI - WIND CHILL INDEX
HX  - HEAT INDEX




USA.gov is the U.S. government's official web portal to all federal, state and local government web resources and services.